Location: Bothwell
(42.3833°S, 147.0000°E)
Time: 09:10:45
(UTC+11:00)

O/OREOS (USA 219) - Pass Details

Date: 23 September 2023
Orbit: 621 x 646 km, 72.0° (Epoch: 22 May)

Event Time Altitude Azimuth Distance (km) Brightness Sun altitude
Exits shadow 02:24:18 13° 107° (ESE) 1,799 ? -37.5°
Drops below altitude 10° 02:25:20 10° 119° (ESE) 2,023 ? -37.4°
Sets 02:28:20 0° 139° (SE) 2,943 ? -36.9°
